COSMOS 1275 DEB, 12656

Orbit data source: Space-Track

COSMOS 1275 DEB, 12656 is space debris in LEO originally from a launch on Thu, 04 Jun 1981 UTC launched from the Plesetsk Missile And Space Complex (PKMTR). Debris objects in space refer to the collection of defunct objects orbiting the Earth. Examples of debris include non-operational satellites, rocket bodies, and fragments generated from explosions, collisions, or faulty payload assembly.

Loading next visibility...
Identifier
12656, 1981-053L
Orbit
LEO
Country
Flag of CISCIS
Related business
Manufacturer
Unknown
Mission
Spacecraft
Bus & Motor
Unknown
Mass
Unknown
Launch date (UTC)
1981-06-04 (45 years ago)
Launch vehicle
Unknown
Launch site
Plesetsk Missile And Space Complex (PKMTR)
Object type
Payload
Rocket body
Debris
Shape & HBR
Unknown shape, 0.3 m
Radar Cross Section
Medium (>0.1 m² and <1 m²)

Expand to show TLE details & history
Last TLE update: 6 hours ago

TLE from 6 hours ago
0 COSMOS 1275 DEB
1 12656U 81053L   26118.87045014  .00000599  00000-0  45221-3 0  9994
2 12656  82.9582  90.0209 0022698 220.9007 208.9921 13.92518890261739
Epoch: 2026-04-28T20:53Z
TLE epoch observation values (Epoch: 2026-04-28T20:53:26.892Z)
Latitude
68.70313°
Longitude
-61.80634°
Altitude
946.211 km
Speed
7.378 km/s
True Right ascension
07h 13m 34s
True Declination
68° 35' 22"
Sunlit
Object was in daylight at epoch
Visualization orbit readout
Latitude
Unknown
Longitude
Unknown
Altitude
Unknown
Speed
Unknown
Apparent Right ascension
Unknown
Apparent Declination
Unknown
Sunlit
N/A
Visualization observer readout
Local Sidereal Time
10:23:56
Azimuth
Unknown
Elevation
Unknown
Doppler factor
Unknown
Orbital elements
Apogee altitude
933.499 km
Perigee altitude
900.382 km
Semi-major axis
7,295.078 km
Eccentricity
0.00227
Inclination
82.9582°
RAAN
90.0209°
Arg. of periapsis
220.9007°
True anomaly
208.86634°
Mean anomaly
208.9921°
Eccentric anomaly
208.92919°
Mean motion
3.48336 °/min
Orbital period
103.35 mins
BSTAR
0.00045221
Loading maneuver chart data...
Computing Atmospheric mass density...
Loading historical data...
Loading historical data...
Loading historical data...
Loading historical data...
Loading historical data...
Loading historical data...
Loading historical data...

Documentation

Showing up to 5 results
|